Regional Weather Roundup
Issued by NWS

Home | Current Version | Previous Version | Graphics & Text | Print | Product List | Glossary Off
Versions: 1 2 3 4 5 6 7 8 9 10 11 12 13 14 15 16 17 18 19 20 21 22 23 24 25 26 27 28 29 30 31 32 33 34 35 36 37 38 39 40 41 42 43 44 45 46 47 48 49 50

000
ASUS43 KIND 241809
RWRIN

WEATHER ROUNDUP FOR INDIANA
NATIONAL WEATHER SERVICE INDIANAPOLIS IN
200 PM EDT THU APR 24 2014

NOTE: "FAIR" INDICATES FEW OR NO CLOUDS BELOW 12,000 FEET WITH NO
SIGNIFICANT WEATHER AND/OR OBSTRUCTIONS TO VISIBILITY.

* - STATION DOES NOT REPORT WEATHER SUCH AS PRECIPITATION OR FOG.

+ - STATION NOT QUALITY CONTROLLED BY THE NATIONAL WEATHER SERVICE.
    USE DATA WITH CAUTION...ESPECIALLY DEWPOINT AND RELATIVE
    HUMIDITY OBSERVATIONS.

INZ001>003-010>013-019-020-241900-
NORTHWEST INDIANA

CITY           SKY/WX    TMP DP  RH WIND       PRES   REMARKS
GARY /AIRPORT/ CLOUDY    61  30  31 SE20G32   29.91F
LA PORTE +     CLOUDY    58  23  26 SE15G23   29.94F
6HR MIN TEMP:  47; 6HR MAX TEMP:  59;

MICHIGAN CITY+ CLOUDY    59  23  25 S12G20    29.93F
MONTICELLO +   PTSUNNY   60  31  34 SE8G20    29.93F
RENSSELAER +   CLOUDY    63  30  29 SE22      29.92F
VALPARAISO     CLOUDY    59  27  29 SE16G28   29.93F
6HR MIN TEMP:  48; 6HR MAX TEMP:  60;


$$

LMZ046-743>745-241900-
SOUTHERN LAKE MICHIGAN

STATION/POSITION TIME  TEMP WIND        PRES
                       AIR  DIR/SP/G
                 (UTC) (F)  (DEG/KT/KT) (MB)
MICHIGAN CITY    1800   58  120/ 16/ 23   N/A

$$

INZ004-005-014>016-021>024-241900-
NORTH CENTRAL INDIANA

CITY           SKY/WX    TMP DP  RH WIND       PRES   REMARKS
ELKHART        PTSUNNY   57  19  23 SE182     29.99
GOSHEN         PTSUNNY   60  24  25 SE23G30   29.99F
6HR MIN TEMP:  49; 6HR MAX TEMP:  60;

LOGANSPORT +   PTSUNNY   59  27  29 SE17      29.96F
PERU/GRISSOM   PTSUNNY   61  28  28 SE16G23   29.96F
6HR MIN TEMP:  49; 6HR MAX TEMP:  62;

ROCHESTER +    CLOUDY    61  25  25 SE14G21   29.97F
SOUTH BEND     CLOUDY    59  21  23 SE22G32   29.97F
6HR MIN TEMP:  50; 6HR MAX TEMP:  60;

WARSAW +       PTSUNNY   57  25  28 SE14G23   29.99F

$$

INZ006>009-017-018-025>027-241900-
NORTHEAST INDIANA

CITY           SKY/WX    TMP DP  RH WIND       PRES   REMARKS
ANGOLA *+      SUNNY     54  25  32 SE15      30.03F
AUBURN +       MOSUNNY   59  19  21 E13G22    30.03F
FORT WAYNE     PTSUNNY   59  21  23 E21       30.02F
6HR MIN TEMP:  47; 6HR MAX TEMP:  59;


$$

INZ028-029-035-036-043>045-051>053-241900-
WEST CENTRAL INDIANA

CITY           SKY/WX    TMP DP  RH WIND       PRES   REMARKS
GREENCASTLE +  CLOUDY    63  37  39 E14G20    29.92F
LAFAYETTE      PTSUNNY   60  33  36 SE16G24   29.92F
6HR MIN TEMP:  50; 6HR MAX TEMP:  62;

TERRE HAUTE    PTSUNNY   66  38  35 SE14G23   29.92S
6HR MIN TEMP:  49; 6HR MAX TEMP:  67;


$$

INZ030>032-037>040-046>048-054>057-064-065-241900-
CENTRAL INDIANA

CITY           SKY/WX    TMP DP  RH WIND       PRES   REMARKS
ANDERSON       MOSUNNY   61  25  25 SE17G29   29.99F
CP ATTERBURY + MOSUNNY   61  36  39 SE15G21   29.95F
COLUMBUS       MOSUNNY   63  36  36 MISG      29.96F
INDIANAPOLIS   CLOUDY    60  37  42 SE16      29.93F
6HR MIN TEMP:  49; 6HR MAX TEMP:  60;

-EAGLE CREEK   PTSUNNY   59  33  37 SE14G22   29.94F
6HR MIN TEMP:  49; 6HR MAX TEMP:  60;

KOKOMO *+      PTSUNNY   61  28  29 SE21      29.97S
MARION +       PTSUNNY   60  21  22 SE14G21   29.99S
MT COMFORT *+  MOSUNNY   61  32  33 SE15G23   29.96F
SHELBYVILLE    MOSUNNY   65  34  31 SE14      29.95F
6HR MIN TEMP:  51; 6HR MAX TEMP:  65;

ZIONSVILLE +   PTSUNNY   61  28  29 SE16      29.95F
6HR MIN TEMP:  49; 6HR MAX TEMP:  62;


$$

INZ033-034-041-042-049-050-058-059-241900-
EAST CENTRAL INDIANA

CITY           SKY/WX    TMP DP  RH WIND       PRES   REMARKS
MUNCIE         MOSUNNY   60  23  24 SE14G25   29.98F
6HR MIN TEMP:  47; 6HR MAX TEMP:  61;


$$

INZ060-061-067>069-081>083-085>088-241900-
SOUTHWEST INDIANA

CITY           SKY/WX    TMP DP  RH WIND       PRES   REMARKS
EVANSVILLE     SUNNY     71  38  29 SE10G21   29.89F
6HR MIN TEMP:  50; 6HR MAX TEMP:  71;

HUNTINGBURG *+ SUNNY     70  41  35 S13       29.91F
6HR MIN TEMP:  52; 6HR MAX TEMP:  70;

WASHINGTON +   SUNNY     69  40  34 SE16      29.90F
6HR MIN TEMP:  50; 6HR MAX TEMP:  69;


$$

INZ062-063-066-070>080-084-089>092-241900-
SOUTH CENTRAL AND SOUTHEAST INDIANA

CITY           SKY/WX    TMP DP  RH WIND       PRES   REMARKS
BEDFORD +      MOSUNNY   66  32  28 SE12      29.93
BLOOMINGTON    PTSUNNY   65  34  31 SE16G24   29.92F
6HR MIN TEMP:  50; 6HR MAX TEMP:  65;

NORTH VERNON + PTSUNNY   63  32  31 SE14      29.97

$$




USA.gov is the U.S. government's official web portal to all federal, state and local government web resources and services.